Weather History for Cloquet, MN

Change the Weather History Date:

Thursday, October 17, 2013

  Actual Average Record
Temperature  
Mean Temperature 39 °F -  
Max Temperature 46 °F 50 °F 68 °F (1998)
Min Temperature 32 °F 33 °F 24 °F (2001)
Degree Days  
Heating Degree Days 26    
Moisture  
Dew Point 38 °F    
Average Humidity 91    
Maximum Humidity 93    
Minimum Humidity 87    
Precipitation  
Precipitation 0.09 in - - ()
Sea Level Pressure  
Sea Level Pressure 29.79 in    
Wind  
Wind Speed 3 mph (WNW)    
Max Wind Speed 15 mph    
Max Gust Speed 20 mph    
Visibility 9 miles    
Events Rain    
Averages and records for this station are not official NWS values.
T = Trace of Precipitation, MM = Missing Value Source: NWS Daily Summary

Daily Weather History Graph

Daily Weather History Graph

Search for Another Location

Airport:

Trip Planner

Search our weather history database for the weather conditions in past years. The results will help you decide how hot, cold, wet, or windy it might be!

Date:

Astronomy

Oct. 17, 2013 Rise Set
Actual Time 7:30 AM CDT 6:18 PM CDT
Civil Twilight 7:00 AM CDT 6:49 PM CDT
Nautical Twilight 6:25 AM CDT 7:24 PM CDT
Astronomical Twilight 5:50 AM CDT 7:59 PM CDT
Moon 5:35 PM CDT (10/17) 5:59 AM CDT (10/17)
Length of Visible Light 11h 49m
Length of Day
10h 48m
Waxing Gibbous, 98% of the Moon is Illuminated
Oct 17
Waxing Gibbous
Oct 18
Full
Oct 26
Last Quarter
Nov 3
New
Nov 9
First Quarter

Hourly Weather History & Observations

Time (CDT) Temp. Windchill Dew Point Humidity Pressure Visibility Wind Dir Wind Speed Gust Speed Precip Events Conditions
12:16 AM 35.6 °F 32.8 °F 32.0 °F 87% 29.83 in 10.0 mi SW 3.5 mph - N/A   Clear
12:36 AM 33.8 °F 30.8 °F 30.2 °F 87% 29.82 in 10.0 mi SW 3.5 mph - N/A   Clear
12:56 AM 35.6 °F - 32.0 °F 87% 29.82 in 10.0 mi Calm Calm - N/A   Clear
1:15 AM 35.6 °F - 33.8 °F 93% 29.82 in 10.0 mi Calm Calm - N/A   Clear
1:36 AM 33.8 °F 30.8 °F 30.2 °F 87% 29.82 in 10.0 mi SW 3.5 mph - N/A   Clear
1:56 AM 33.8 °F - 30.2 °F 87% 29.81 in 10.0 mi Calm Calm - N/A   Clear
2:15 AM 33.8 °F - 32.0 °F 93% 29.81 in 10.0 mi Calm Calm - N/A   Clear
2:36 AM 32.0 °F - 30.2 °F 93% 29.81 in 10.0 mi Calm Calm - N/A   Clear
2:56 AM 33.8 °F - 30.2 °F 87% 29.80 in 10.0 mi Calm Calm - N/A   Clear
3:15 AM 33.8 °F - 32.0 °F 93% 29.80 in 10.0 mi Calm Calm - N/A   Clear
3:36 AM 35.6 °F - 33.8 °F 93% 29.80 in 10.0 mi Calm Calm - N/A   Clear
3:55 AM 35.6 °F - 33.8 °F 93% 29.80 in 10.0 mi Calm Calm - N/A   Clear
4:16 AM 35.6 °F 32.8 °F 33.8 °F 93% 29.79 in 10.0 mi South 3.5 mph - N/A   Clear
4:36 AM 35.6 °F 32.8 °F 33.8 °F 93% 29.79 in 10.0 mi South 3.5 mph - N/A   Clear
4:55 AM 35.6 °F 31.7 °F 33.8 °F 93% 29.79 in 10.0 mi SSW 4.6 mph - N/A   Clear
5:16 AM 35.6 °F 32.8 °F 33.8 °F 93% 29.79 in 10.0 mi South 3.5 mph - N/A   Clear
5:36 AM 35.6 °F 32.8 °F 33.8 °F 93% 29.79 in 10.0 mi South 3.5 mph - N/A   Clear
5:56 AM 35.6 °F 31.7 °F 33.8 °F 93% 29.79 in 10.0 mi SSW 4.6 mph - N/A   Scattered Clouds
6:16 AM 35.6 °F 32.8 °F 33.8 °F 93% 29.78 in 10.0 mi SSW 3.5 mph - N/A   Scattered Clouds
6:36 AM 37.4 °F - 35.6 °F 93% 29.78 in 10.0 mi Calm Calm - N/A   Mostly Cloudy
6:55 AM 37.4 °F 34.9 °F 35.6 °F 93% 29.78 in 10.0 mi SSW 3.5 mph - N/A   Overcast
7:16 AM 37.4 °F 34.9 °F 35.6 °F 93% 29.78 in 10.0 mi SW 3.5 mph - N/A   Overcast
7:36 AM 37.4 °F 34.9 °F 35.6 °F 93% 29.78 in 10.0 mi WSW 3.5 mph - N/A   Overcast
7:56 AM 37.4 °F - 35.6 °F 93% 29.78 in 10.0 mi Calm Calm - N/A   Overcast
8:16 AM 37.4 °F - 35.6 °F 93% 29.78 in 10.0 mi Calm Calm - N/A   Mostly Cloudy
8:36 AM 39.2 °F - 35.6 °F 87% 29.78 in 10.0 mi Calm Calm - N/A   Scattered Clouds
8:56 AM 39.2 °F - 37.4 °F 93% 29.78 in 10.0 mi Calm Calm - N/A   Scattered Clouds
9:16 AM 39.2 °F - 37.4 °F 93% 29.78 in 10.0 mi Calm Calm - N/A   Mostly Cloudy
9:36 AM 41.0 °F 39.0 °F 37.4 °F 87% 29.78 in 10.0 mi West 3.5 mph - N/A   Light Drizzle
9:56 AM 41.0 °F 39.0 °F 37.4 °F 87% 29.78 in 10.0 mi West 3.5 mph - N/A   Drizzle
10:16 AM 41.0 °F - 39.2 °F 93% 29.78 in 7.0 mi Calm Calm - N/A   Drizzle
10:36 AM 42.8 °F - 39.2 °F 87% 29.78 in 7.0 mi Calm Calm - N/A Rain Rain
10:56 AM 42.8 °F - 39.2 °F 87% 29.78 in 10.0 mi Calm Calm - N/A   Drizzle
11:16 AM 42.8 °F - 39.2 °F 87% 29.78 in 7.0 mi Calm Calm - N/A Rain Light Rain
11:36 AM 42.8 °F 40.1 °F 41.0 °F 93% 29.79 in 7.0 mi SW 4.6 mph - N/A Rain Rain
11:55 AM 44.6 °F - 41.0 °F 87% 29.79 in 10.0 mi Calm Calm - 0.01 in Rain Light Rain
12:16 PM 44.6 °F - 42.8 °F 93% 29.79 in 7.0 mi Calm Calm - 0.01 in Rain Light Rain
12:35 PM 44.6 °F - 42.8 °F 93% 29.79 in 7.0 mi Calm Calm - 0.02 in Rain Rain
12:56 PM 44.6 °F - 42.8 °F 93% 29.78 in 7.0 mi Calm Calm - N/A   Drizzle
1:15 PM 44.6 °F - 42.8 °F 93% 29.78 in 7.0 mi Calm Calm - 0.01 in   Drizzle
1:36 PM 46.4 °F - 42.8 °F 87% 29.78 in 7.0 mi Calm Calm - 0.01 in Rain Light Rain
1:56 PM 46.4 °F 45.2 °F 44.6 °F 93% 29.78 in 7.0 mi WNW 3.5 mph - N/A Rain Light Rain
2:16 PM 46.4 °F - 44.6 °F 93% 29.77 in 7.0 mi Calm Calm - 0.01 in Rain Light Rain
2:36 PM 46.4 °F 45.2 °F 44.6 °F 93% 29.77 in 7.0 mi WNW 3.5 mph - 0.02 in Rain Rain
2:55 PM 46.4 °F 45.2 °F 44.6 °F 93% 29.77 in 7.0 mi WNW 3.5 mph - 0.02 in   Drizzle
3:16 PM 46.4 °F 44.3 °F 44.6 °F 93% 29.77 in 7.0 mi NNW 4.6 mph - N/A   Drizzle
3:35 PM 46.4 °F 44.3 °F 44.6 °F 93% 29.76 in 10.0 mi NNW 4.6 mph - 0.01 in Rain Rain
3:56 PM 46.4 °F 45.2 °F 44.6 °F 93% 29.77 in 10.0 mi North 3.5 mph - N/A Rain Rain
4:16 PM 46.4 °F 45.2 °F 42.8 °F 87% 29.77 in 10.0 mi NNW 3.5 mph - N/A Rain Light Rain
4:35 PM 46.4 °F 45.2 °F 44.6 °F 93% 29.77 in 10.0 mi NNW 3.5 mph - N/A Rain Light Rain
4:56 PM 46.4 °F 43.5 °F 44.6 °F 93% 29.77 in 10.0 mi NW 5.8 mph - N/A Rain Light Rain
5:16 PM 46.4 °F 43.5 °F 42.8 °F 87% 29.77 in 10.0 mi NW 5.8 mph - N/A   Drizzle
5:35 PM 46.4 °F 43.5 °F 44.6 °F 93% 29.77 in 10.0 mi WNW 5.8 mph - N/A Rain Light Rain
5:56 PM 46.4 °F 44.3 °F 42.8 °F 87% 29.77 in 10.0 mi NW 4.6 mph - N/A Rain Rain
6:15 PM 44.6 °F 43.1 °F 42.8 °F 93% 29.78 in 10.0 mi NW 3.5 mph - N/A   Light Drizzle
6:36 PM 44.6 °F 43.1 °F 42.8 °F 93% 29.78 in 7.0 mi NW 3.5 mph - N/A Rain Rain
6:56 PM 44.6 °F 42.2 °F 42.8 °F 93% 29.79 in 7.0 mi NW 4.6 mph - N/A   Drizzle
7:15 PM 44.6 °F 40.2 °F 42.8 °F 93% 29.79 in 7.0 mi NW 8.1 mph - N/A   Drizzle
7:36 PM 44.6 °F 40.7 °F 42.8 °F 93% 29.79 in 10.0 mi NNW 6.9 mph - N/A   Drizzle
7:56 PM 44.6 °F 38.8 °F 42.8 °F 93% 29.80 in 10.0 mi NNW 11.5 mph - N/A   Drizzle
8:15 PM 44.6 °F 38.8 °F 42.8 °F 93% 29.80 in 10.0 mi NNW 11.5 mph 18.4 mph N/A Rain Rain
8:36 PM 42.8 °F 38.6 °F 41.0 °F 93% 29.81 in 10.0 mi North 6.9 mph 17.3 mph 0.01 in   Drizzle
8:55 PM 42.8 °F 37.5 °F 41.0 °F 93% 29.81 in 10.0 mi North 9.2 mph - 0.01 in   Drizzle
9:16 PM 42.8 °F 35.8 °F 39.2 °F 87% 29.81 in 10.0 mi NNW 13.8 mph 19.6 mph N/A   Drizzle
9:36 PM 42.8 °F 36.2 °F 39.2 °F 87% 29.82 in 10.0 mi NNW 12.7 mph 18.4 mph N/A Rain Rain
9:56 PM 42.8 °F 36.6 °F 39.2 °F 87% 29.82 in 10.0 mi NNW 11.5 mph 19.6 mph N/A Rain Light Rain
10:15 PM 41.0 °F 33.5 °F 39.2 °F 93% 29.83 in 7.0 mi NNW 13.8 mph - N/A Rain Light Rain
10:36 PM 41.0 °F 34.7 °F 39.2 °F 93% 29.83 in 10.0 mi NNW 10.4 mph 16.1 mph 0.01 in Rain Light Rain
10:55 PM 41.0 °F 33.1 °F 37.4 °F 87% 29.83 in 10.0 mi NW 15.0 mph - 0.01 in Rain Rain
11:16 PM 39.2 °F 32.0 °F 37.4 °F 93% 29.83 in 10.0 mi NNW 11.5 mph 17.3 mph N/A Rain Rain
11:36 PM 39.2 °F 32.0 °F 37.4 °F 93% 29.83 in 10.0 mi NNW 11.5 mph 19.6 mph N/A   Drizzle
11:55 PM 39.2 °F 32.0 °F 37.4 °F 93% 29.83 in 10.0 mi NNW 11.5 mph - N/A   Drizzle